Location: Unspecified
(51.0950°N, 12.9690°E)
Time: 15:35:05
(UTC+00:00)

CZ-4C R/B - Pass Details

Date: 28 October 2021
Orbit: 597 x 1404 km, 63.4° (Epoch: 27 November)

Event Time Altitude Azimuth Distance (km) Brightness Sun altitude
Rises 17:51:28 0° 187° (S) 2,973 5.1 -19.7°
Reaches altitude 10° 17:53:49 10° 177° (S) 2,143 4.2 -20.1°
Enters shadow 17:56:19 25° 150° (SSE) 1,479 3.2 -20.5°
